User: anonymous   Login
Location: Unspecified
(0.0000°N, 0.0000°E)
Time: 08:00:20
(UTC+00:00)
Language:

OV2-5 - Orbit

View from above orbital plane
View from above orbital plane
View from above satellite
View from above satellite

Ground track
Ground track

The orbit data is extracted from the following two-line orbital elements,

1 03428U 68081A   21067.79280983 -.00000136  00000-0  00000-0 0  9993
2 03428   3.1556 306.4567 0086248 355.1414 200.3522  1.01560493101499
Epoch (UTC): 08 March 2021 19:01:38
Eccentricity: 0.0086248
inclination: 3.1556°
perigee height: 35068 km
apogee height: 35789 km
right ascension of ascending node: 306.4567°
argument of perigee: 355.1414°
revolutions per day: 1.01560493
mean anomaly at epoch: 200.3522°
orbit number at epoch: 10149

The dashed part of the orbit path shows where the satellite is in the earth's shadow,  

DLR